Location: Hannover
(52.3723°N, 9.7339°E)
Time: 14:47:56
(UTC+02:00)

ISS - Pass Details

Date: 30 March 2017
Orbit: 399 x 409 km, 51.6° (Epoch: 30 March)

Event Time Altitude Azimuth Distance (km) Brightness Sun altitude
Rises 22:24:16 0° 255° (WSW) 2,314 0.5 -21.8°
Reaches altitude 10° 22:26:20 10° 253° (WSW) 1,458 -0.6 -22.1°
Enters shadow 22:28:01 28° 246° (WSW) 803 -2.1 -22.3°
